User: anonymous   Login
Location: Sternwarte Stuttgart
(48.7670°N, 9.1830°E)
Time: 04:51:57
(UTC+02:00)
Language:

CZ-4B R/B - Orbit

View from above orbital plane
View from above orbital plane
View from above satellite
View from above satellite

Ground track
Ground track

The orbit data is extracted from the following two-line orbital elements,

1 27432U 02024C   19293.56347082 -.00000027  00000-0  96332-5 0  9993
2 27432  99.0789 286.7966 0051126 135.1332 327.4670 14.14084649899689
Epoch (UTC): 20 October 2019 13:31:23
Eccentricity: 0.0051126
inclination: 99.0789°
perigee height: 808 km
apogee height: 882 km
right ascension of ascending node: 286.7966°
argument of perigee: 135.1332°
revolutions per day: 14.14084649
mean anomaly at epoch: 327.4670°
orbit number at epoch: 89968

The dashed part of the orbit path shows where the satellite is in the earth's shadow,  

DLR